Year,Month,Day,Hour,Minute,Value (Times are PST for temperature in C)
2015,12,10,00,00,9.20
2015,12,10,00,01,9.20
2015,12,10,00,02,9.20
2015,12,10,00,03,9.10
2015,12,10,00,04,9.20
2015,12,10,00,05,9.20
2015,12,10,00,06,9.20
2015,12,10,00,07,9.20
2015,12,10,00,08,9.20
2015,12,10,00,09,9.20
2015,12,10,00,10,9.20
2015,12,10,00,11,9.20
2015,12,10,00,12,9.20
2015,12,10,00,13,9.20
2015,12,10,00,14,9.20
2015,12,10,00,15,9.20
2015,12,10,00,16,9.20
2015,12,10,00,17,9.20
2015,12,10,00,18,9.20
2015,12,10,00,19,9.20
2015,12,10,00,20,9.20
2015,12,10,00,21,9.20
2015,12,10,00,22,9.20
2015,12,10,00,23,9.10
2015,12,10,00,24,9.10
2015,12,10,00,25,9.10
2015,12,10,00,26,9.10
2015,12,10,00,27,9.10
2015,12,10,00,28,9.10
2015,12,10,00,29,9.00
2015,12,10,00,30,9.00
2015,12,10,00,31,9.00
2015,12,10,00,32,9.00
2015,12,10,00,33,9.10
2015,12,10,00,34,9.10
2015,12,10,00,35,9.10
2015,12,10,00,36,9.10
2015,12,10,00,37,9.10
2015,12,10,00,38,9.10
2015,12,10,00,39,9.10
2015,12,10,00,40,9.20
2015,12,10,00,41,9.20
2015,12,10,00,42,9.20
2015,12,10,00,43,9.20
2015,12,10,00,44,9.20
2015,12,10,00,45,9.20
2015,12,10,00,46,9.20
2015,12,10,00,47,9.20
2015,12,10,00,48,9.20
2015,12,10,00,49,9.20
2015,12,10,00,50,9.10
2015,12,10,00,51,9.10
2015,12,10,00,52,9.10
2015,12,10,00,53,9.10
2015,12,10,00,54,9.10
2015,12,10,00,55,9.00
2015,12,10,00,56,9.00
2015,12,10,00,57,8.90
2015,12,10,00,58,8.90
2015,12,10,00,59,8.90
2015,12,10,01,00,8.90
2015,12,10,01,01,8.80
2015,12,10,01,02,8.80
2015,12,10,01,03,8.80
2015,12,10,01,04,8.70
2015,12,10,01,05,8.70
2015,12,10,01,06,8.70
2015,12,10,01,07,8.70
2015,12,10,01,08,8.60
2015,12,10,01,09,8.60
2015,12,10,01,10,8.60
2015,12,10,01,11,8.60
2015,12,10,01,12,8.60
2015,12,10,01,13,8.60
2015,12,10,01,14,8.60
2015,12,10,01,15,8.60
2015,12,10,01,16,8.50
2015,12,10,01,17,8.50
2015,12,10,01,18,8.50
2015,12,10,01,19,8.50
2015,12,10,01,20,8.50
2015,12,10,01,21,8.50
2015,12,10,01,22,8.50
2015,12,10,01,23,8.50
2015,12,10,01,24,8.50
2015,12,10,01,25,8.40
2015,12,10,01,26,8.40
2015,12,10,01,27,8.40
2015,12,10,01,28,8.40
2015,12,10,01,29,8.40
2015,12,10,01,30,8.40
2015,12,10,01,31,8.40
2015,12,10,01,32,8.40
2015,12,10,01,33,8.30
2015,12,10,01,34,8.30
2015,12,10,01,35,8.30
2015,12,10,01,36,8.30
2015,12,10,01,37,8.30
2015,12,10,01,38,8.30
2015,12,10,01,39,8.30
2015,12,10,01,40,8.30
2015,12,10,01,41,8.20
2015,12,10,01,42,8.20
2015,12,10,01,43,8.20
2015,12,10,01,44,8.20
2015,12,10,01,45,8.20
2015,12,10,01,46,8.20
2015,12,10,01,47,8.20
2015,12,10,01,48,8.20
2015,12,10,01,49,8.20
2015,12,10,01,50,8.20
2015,12,10,01,51,8.20
2015,12,10,01,52,8.20
2015,12,10,01,53,8.20
2015,12,10,01,54,8.20
2015,12,10,01,55,8.20
2015,12,10,01,56,8.20
2015,12,10,01,57,8.20
2015,12,10,01,58,8.20
2015,12,10,01,59,8.20
2015,12,10,02,00,8.20
2015,12,10,02,01,8.20
2015,12,10,02,02,8.20
2015,12,10,02,03,8.20
2015,12,10,02,04,8.20
2015,12,10,02,05,8.20
2015,12,10,02,06,8.20
2015,12,10,02,07,8.20
2015,12,10,02,08,8.20
2015,12,10,02,09,8.20
2015,12,10,02,10,8.20
2015,12,10,02,11,8.20
2015,12,10,02,12,8.20
2015,12,10,02,13,8.20
2015,12,10,02,14,8.20
2015,12,10,02,15,8.20
2015,12,10,02,16,8.20
2015,12,10,02,17,8.20
2015,12,10,02,18,8.20
2015,12,10,02,19,8.20
2015,12,10,02,20,8.20
2015,12,10,02,21,8.20
2015,12,10,02,22,8.20
2015,12,10,02,23,8.20
2015,12,10,02,24,8.20
2015,12,10,02,25,8.20
2015,12,10,02,26,8.20
2015,12,10,02,27,8.20
2015,12,10,02,28,8.20
2015,12,10,02,29,8.20
2015,12,10,02,30,8.20
2015,12,10,02,31,8.20
2015,12,10,02,32,8.20
2015,12,10,02,33,8.20
2015,12,10,02,34,8.20
2015,12,10,02,35,8.20
2015,12,10,02,36,8.20
2015,12,10,02,37,8.20
2015,12,10,02,38,8.20
2015,12,10,02,39,8.20
2015,12,10,02,40,8.20
2015,12,10,02,41,8.20
2015,12,10,02,42,8.20
2015,12,10,02,43,8.20
2015,12,10,02,44,8.20
2015,12,10,02,45,8.20
2015,12,10,02,46,8.20
2015,12,10,02,47,8.20
2015,12,10,02,48,8.20
2015,12,10,02,49,8.20
2015,12,10,02,50,8.20
2015,12,10,02,51,8.20
2015,12,10,02,52,8.20
2015,12,10,02,53,8.20
2015,12,10,02,54,8.20
2015,12,10,02,55,8.20
2015,12,10,02,56,8.20
2015,12,10,02,57,8.20
2015,12,10,02,58,8.20
2015,12,10,02,59,8.20
2015,12,10,03,00,8.30
2015,12,10,03,01,8.30
2015,12,10,03,02,8.30
2015,12,10,03,03,8.30
2015,12,10,03,04,8.30
2015,12,10,03,05,8.30
2015,12,10,03,06,8.30
2015,12,10,03,07,8.30
2015,12,10,03,08,8.30
2015,12,10,03,09,8.30
2015,12,10,03,10,8.30
2015,12,10,03,11,8.30
2015,12,10,03,12,8.40
2015,12,10,03,13,8.40
2015,12,10,03,14,8.40
2015,12,10,03,15,8.40
2015,12,10,03,16,8.40
2015,12,10,03,17,8.50
2015,12,10,03,18,8.50
2015,12,10,03,19,8.50
2015,12,10,03,20,8.50
2015,12,10,03,21,8.40
2015,12,10,03,22,8.40
2015,12,10,03,23,8.40
2015,12,10,03,24,8.40
2015,12,10,03,25,8.40
2015,12,10,03,26,8.40
2015,12,10,03,27,8.40
2015,12,10,03,28,8.40
2015,12,10,03,29,8.40
2015,12,10,03,30,8.40
2015,12,10,03,31,8.30
2015,12,10,03,32,8.30
2015,12,10,03,33,8.30
2015,12,10,03,34,8.30
2015,12,10,03,35,8.30
2015,12,10,03,36,8.30
2015,12,10,03,37,8.30
2015,12,10,03,38,8.20
2015,12,10,03,39,8.20
2015,12,10,03,40,8.20
2015,12,10,03,41,8.20
2015,12,10,03,42,8.20
2015,12,10,03,43,8.20
2015,12,10,03,44,8.20
2015,12,10,03,45,8.20
2015,12,10,03,46,8.20
2015,12,10,03,47,8.20
2015,12,10,03,48,8.10
2015,12,10,03,49,8.10
2015,12,10,03,50,8.10
2015,12,10,03,51,8.10
2015,12,10,03,52,8.10
2015,12,10,03,53,8.10
2015,12,10,03,54,8.00
2015,12,10,03,55,8.00
2015,12,10,03,56,8.00
2015,12,10,03,57,8.10
2015,12,10,03,58,8.10
2015,12,10,03,59,8.10
2015,12,10,04,00,8.10
2015,12,10,04,01,8.10
2015,12,10,04,02,8.20
2015,12,10,04,03,8.30
2015,12,10,04,04,8.40
2015,12,10,04,05,8.50
2015,12,10,04,06,8.70
2015,12,10,04,07,8.80
2015,12,10,04,08,8.90
2015,12,10,04,09,8.90
2015,12,10,04,10,9.00
2015,12,10,04,11,9.00
2015,12,10,04,12,9.00
2015,12,10,04,13,9.00
2015,12,10,04,14,9.00
2015,12,10,04,15,9.00
2015,12,10,04,16,8.90
2015,12,10,04,17,8.90
2015,12,10,04,18,8.90
2015,12,10,04,19,8.80
2015,12,10,04,20,8.80
2015,12,10,04,21,8.80
2015,12,10,04,22,8.80
2015,12,10,04,23,8.70
2015,12,10,04,24,8.70
2015,12,10,04,25,8.70
2015,12,10,04,26,8.60
2015,12,10,04,27,8.60
2015,12,10,04,28,8.60
2015,12,10,04,29,8.60
2015,12,10,04,30,8.60
2015,12,10,04,31,8.70
2015,12,10,04,32,8.70
2015,12,10,04,33,8.70
2015,12,10,04,34,8.70
2015,12,10,04,35,8.70
2015,12,10,04,36,8.80
2015,12,10,04,37,8.80
2015,12,10,04,38,8.90
2015,12,10,04,39,8.90
2015,12,10,04,40,9.00
2015,12,10,04,41,9.00
2015,12,10,04,42,9.00
2015,12,10,04,43,9.10
2015,12,10,04,44,9.10
2015,12,10,04,45,9.10
2015,12,10,04,46,9.10
2015,12,10,04,47,9.10
2015,12,10,04,48,9.00
2015,12,10,04,49,9.00
2015,12,10,04,50,9.00
2015,12,10,04,51,8.90
2015,12,10,04,52,8.90
2015,12,10,04,53,8.80
2015,12,10,04,54,8.80
2015,12,10,04,55,8.80
2015,12,10,04,56,8.70
2015,12,10,04,57,8.70
2015,12,10,04,58,8.70
2015,12,10,04,59,8.70
2015,12,10,05,00,8.60
2015,12,10,05,01,8.60
2015,12,10,05,02,8.60
2015,12,10,05,03,8.60
2015,12,10,05,04,8.60
2015,12,10,05,05,8.50
2015,12,10,05,06,8.50
2015,12,10,05,07,8.40
2015,12,10,05,08,8.40
2015,12,10,05,09,8.30
2015,12,10,05,10,8.30
2015,12,10,05,11,8.30
2015,12,10,05,12,8.30
2015,12,10,05,13,8.20
2015,12,10,05,14,8.20
2015,12,10,05,15,8.20
2015,12,10,05,16,8.10
2015,12,10,05,17,8.10
2015,12,10,05,18,8.10
2015,12,10,05,19,8.10
2015,12,10,05,20,8.10
2015,12,10,05,21,8.10
2015,12,10,05,22,8.10
2015,12,10,05,23,8.10
2015,12,10,05,24,8.10
2015,12,10,05,25,8.10
2015,12,10,05,26,8.00
2015,12,10,05,27,8.10
2015,12,10,05,28,8.00
2015,12,10,05,29,8.10
2015,12,10,05,30,8.10
2015,12,10,05,31,8.10
2015,12,10,05,32,8.10
2015,12,10,05,33,8.10
2015,12,10,05,34,8.10
2015,12,10,05,35,8.10
2015,12,10,05,36,8.10
2015,12,10,05,37,8.20
2015,12,10,05,38,8.20
2015,12,10,05,39,8.20
2015,12,10,05,40,8.20
2015,12,10,05,41,8.10
2015,12,10,05,42,8.20
2015,12,10,05,43,8.20
2015,12,10,05,44,8.20
2015,12,10,05,45,8.20
2015,12,10,05,46,8.20
2015,12,10,05,47,8.30
2015,12,10,05,48,8.30
2015,12,10,05,49,8.30
2015,12,10,05,50,8.30
2015,12,10,05,51,8.30
2015,12,10,05,52,8.30
2015,12,10,05,53,8.30
2015,12,10,05,54,8.30
2015,12,10,05,55,8.40
2015,12,10,05,56,8.40
2015,12,10,05,57,8.40
2015,12,10,05,58,8.40
2015,12,10,05,59,8.40
2015,12,10,06,00,8.40
2015,12,10,06,01,8.40
2015,12,10,06,02,8.40
2015,12,10,06,03,8.40
2015,12,10,06,04,8.40
2015,12,10,06,05,8.40
2015,12,10,06,06,8.40
2015,12,10,06,07,8.40
2015,12,10,06,08,8.40
2015,12,10,06,09,8.40
2015,12,10,06,10,8.30
2015,12,10,06,11,8.30
2015,12,10,06,12,8.30
2015,12,10,06,13,8.30
2015,12,10,06,14,8.30
2015,12,10,06,15,8.20
2015,12,10,06,16,8.20
2015,12,10,06,17,8.20
2015,12,10,06,18,8.20
2015,12,10,06,19,8.20
2015,12,10,06,20,8.20
2015,12,10,06,21,8.20
2015,12,10,06,22,8.10
2015,12,10,06,23,8.10
2015,12,10,06,24,8.20
2015,12,10,06,25,8.20
2015,12,10,06,26,8.20
2015,12,10,06,27,8.20
2015,12,10,06,28,8.20
2015,12,10,06,29,8.30
2015,12,10,06,30,8.30
2015,12,10,06,31,8.30
2015,12,10,06,32,8.40
2015,12,10,06,33,8.40
2015,12,10,06,34,8.50
2015,12,10,06,35,8.50
2015,12,10,06,36,8.60
2015,12,10,06,37,8.60
2015,12,10,06,38,8.70
2015,12,10,06,39,8.70
2015,12,10,06,40,8.70
2015,12,10,06,41,8.70
2015,12,10,06,42,8.80
2015,12,10,06,43,8.80
2015,12,10,06,44,8.80
2015,12,10,06,45,8.90
2015,12,10,06,46,8.90
2015,12,10,06,47,8.90
2015,12,10,06,48,8.90
2015,12,10,06,49,8.90
2015,12,10,06,50,8.90
2015,12,10,06,51,8.90
2015,12,10,06,52,8.90
2015,12,10,06,53,8.90
2015,12,10,06,54,8.90
2015,12,10,06,55,8.90
2015,12,10,06,56,8.90
2015,12,10,06,57,8.90
2015,12,10,06,58,8.90
2015,12,10,06,59,8.90
2015,12,10,07,00,8.90
2015,12,10,07,01,8.90
2015,12,10,07,02,8.90
2015,12,10,07,03,8.90
2015,12,10,07,04,8.90
2015,12,10,07,05,8.90
2015,12,10,07,06,8.90
2015,12,10,07,07,8.90
2015,12,10,07,08,8.90
2015,12,10,07,09,8.90
2015,12,10,07,10,8.90
2015,12,10,07,11,8.90
2015,12,10,07,12,8.90
2015,12,10,07,13,8.90
2015,12,10,07,14,8.90
2015,12,10,07,15,9.00
2015,12,10,07,16,9.00
2015,12,10,07,17,9.00
2015,12,10,07,18,9.00
2015,12,10,07,19,9.00
2015,12,10,07,20,9.00
2015,12,10,07,21,9.10
2015,12,10,07,22,9.10
2015,12,10,07,23,9.10
2015,12,10,07,24,9.20
2015,12,10,07,25,9.20
2015,12,10,07,26,9.20
2015,12,10,07,27,9.20
2015,12,10,07,28,9.20
2015,12,10,07,29,9.20
2015,12,10,07,30,9.20
2015,12,10,07,31,9.20
2015,12,10,07,32,9.20
2015,12,10,07,33,9.20
2015,12,10,07,34,9.10
2015,12,10,07,35,9.20
2015,12,10,07,36,9.20
2015,12,10,07,37,9.20
2015,12,10,07,38,9.20
2015,12,10,07,39,9.20
2015,12,10,07,40,9.20
2015,12,10,07,41,9.20
2015,12,10,07,42,9.20
2015,12,10,07,43,9.20
2015,12,10,07,44,9.20
2015,12,10,07,45,9.20
2015,12,10,07,46,9.20
2015,12,10,07,47,9.20
2015,12,10,07,48,9.20
2015,12,10,07,49,9.20
2015,12,10,07,50,9.20
2015,12,10,07,51,9.20
2015,12,10,07,52,9.30
2015,12,10,07,53,9.30
2015,12,10,07,54,9.30
2015,12,10,07,55,9.30
2015,12,10,07,56,9.30
2015,12,10,07,57,9.30
2015,12,10,07,58,9.30
2015,12,10,07,59,9.30
2015,12,10,08,00,9.30
2015,12,10,08,01,9.30
2015,12,10,08,02,9.30
2015,12,10,08,03,9.30
2015,12,10,08,04,9.30
2015,12,10,08,05,9.30
2015,12,10,08,06,9.30
2015,12,10,08,07,9.30
2015,12,10,08,08,9.30
2015,12,10,08,09,9.30
2015,12,10,08,10,9.40
2015,12,10,08,11,9.40
2015,12,10,08,12,9.40
2015,12,10,08,13,9.50
2015,12,10,08,14,9.50
2015,12,10,08,15,9.60
2015,12,10,08,16,9.60
2015,12,10,08,17,9.70
2015,12,10,08,18,9.70
2015,12,10,08,19,9.80
2015,12,10,08,20,9.80
2015,12,10,08,21,9.80
2015,12,10,08,22,9.80
2015,12,10,08,23,9.80
2015,12,10,08,24,9.80
2015,12,10,08,25,9.80
2015,12,10,08,26,9.80
2015,12,10,08,27,9.70
2015,12,10,08,28,9.70
2015,12,10,08,29,9.70
2015,12,10,08,30,9.70
2015,12,10,08,31,9.70
